Weather in Kargapol'ye

Russia / Kurgan Oblast     55°57′18″N   64°26′01″E
temp.,
°C
wind,
m/s
gust,
m/s
humid.,
%
clouds,
%
prec.,
mm/h
press.,
hPa
HPBL,
m
6 may, thu
thu623:00+16wnw9155428 0.0 997699
02:00+11wnw9136878 0.0 1000968
05:00+9w812655 0.0 1003936
08:00+9wnw911585 0.0 10051129
11:00+13w9124169 0.0 10072091
14:00+12wnw10124085 0.0 10102086
17:00+13wnw8113579 0.0 10112337
20:00+11wnw611425 0.0 1013519
7 may, fri
fri723:00+7w38530 0.0 1016181
02:00+5w48590 0.0 1017166
05:00+4w38670 0.0 1020146
08:00+10w47505 0.0 1021444
11:00+14w563727 0.0 10211178
14:00+18w563393 0.0 10201497
17:00+19w45335 0.0 10201587
20:00+15wsw22475 0.0 102011
8 may, sat
sat823:00+11ssw33535 0.0 102122
02:00+10ssw3354100 0.0 102124
05:00+9ssw2256100 0.0 102111
08:00+13ssw2246100 0.0 1021168
11:00+18ssw2234100 0.0 10201076
14:00+20ese1227100 0.0 10182345
17:00+20ene2226100 0.0 10172687
20:00+16e3442100 0.0 101756
9 may, sun
sun923:00+15e2237100 0.0 101711
02:00+14ne2240100 0.0 101623
05:00+12ne3447100 0.0 101780
08:00+14nne3754100 0.0 1017231
11:00+18ne4641100 0.0 1017715
14:00+21ne7834100 0.0 10162791
17:00+19nne584299 0.0 10171348
20:00+17nne355089 0.0 101773
10 may, mon
mon1023:00+14nne5125993 0.0 1018243
02:00+13ne3669100 0.1 1019112
05:00+11ne367915 0.1 101998
08:00+16ne456169 0.0 1021363
11:00+20nne45452 0.0 10211434
14:00+23nne34324 0.0 10212599
17:00+23nne34294 0.0 10202626
20:00+19nnw2242100 0.0 102112